#timestamp,LO_Frequency,Hit,StdDev 
1583601435.2,286046994.9,P
1583601455.1,286046993.7,P
1583601456.0,286046993.7,P
1583601475.8,286046994.2,Y
1583601495.6,286047001.2,P
1583601515.5,286047000.6,N
1583601535.3,286046999.8,N
1583601555.2,286047000.3,N
1583601575.9,286047000.2,N
1583601595.7,286046998.4,N
1583601615.6,286046996.9,N
1583601635.4,286046996.6,N
1583601655.2,286046996.6,N
1583601675.1,286046996.9,N
1583601676.0,286046996.9,N
1583601695.8,286046996.6,N
1583601715.7,286046999.5,N
1583601735.5,286046996.6,N
1583601755.3,286046997.6,N
1583601775.2,286046999.6,N
1583601795.0,286046999.2,N
1583601795.9,286046999.2,N
1583601815.8,286046997.1,N
1583601835.6,286046993.7,Y
1583601855.4,286046996.1,P
1583601875.3,286046997.9,N
1583601895.1,286046995.3,P
1583601915.9,286046993.4,Y
1583601935.7,286046997.1,P
1583601955.5,286046997.1,P
1583601975.4,286046997.8,P
1583601995.2,286046995.3,Y
1583602015.0,286047000.1,P
1583602015.9,286047000.1,N
1583602035.8,286047001.3,N
1583602055.6,286047002.5,N
1583602075.5,286047001.2,N
1583602095.3,286046999.1,N
1583602115.1,286046999.4,N
1583602135.9,286046999.3,N
1583602155.7,286046998.5,N
1583602175.5,286047001.1,N
1583602195.4,286047001.1,N
1583602215.2,286046998.8,N
1583602235.1,286046998.8,N
1583602236.0,286046998.8,N
1583602255.8,286046996.7,N
1583602275.6,286046999.6,N
1583602295.5,286046997.4,N
1583602315.3,286046997.0,N
1583602335.2,286046997.6,N
1583602355.9,286046997.0,N
1583602375.7,286046999.6,N
1583602395.6,286046998.9,N
1583602415.4,286047001.0,N
1583602435.2,286046999.2,N
1583602455.1,286046997.0,N
1583602456.0,286046997.0,N
1583602475.8,286046997.6,N
1583602495.7,286046995.3,N
1583602515.5,286046995.6,N
1583602535.3,286046995.0,N
1583602555.2,286046993.7,Y
1583602575.0,286046993.7,P
1583602575.9,286046993.7,N
1583602595.8,286046994.1,N
1583602615.6,286046994.1,N
1583602635.4,286046993.3,Y
1583602655.3,286046998.1,P
1583602675.1,286046999.0,N
1583602695.9,286047000.2,N
1583602715.7,286047002.6,N
1583602735.5,286047000.5,N
1583602755.4,286047000.0,N
1583602775.2,286047000.0,N
1583602795.0,286047000.1,N
1583602796.0,286047000.1,N
1583602815.8,286047001.0,N
1583602835.6,286046999.7,N
1583602855.5,286047001.5,N
1583602875.3,286047003.8,N
1583602895.1,286047004.3,N
1583602915.9,286047002.6,N
1583602935.7,286047000.6,N
1583602955.6,286047000.9,N
1583602975.4,286047000.7,N
1583602995.2,286047000.3,N
1583603015.1,286047000.7,N
1583603016.0,286047000.7,N
1583603035.8,286047000.7,N
1583603055.7,286046998.6,N
1583603075.5,286046998.1,N
1583603095.3,286047001.0,N
1583603115.2,286046999.0,N
1583603135.0,286046996.9,N
1583603135.9,286046996.9,N
1583603155.8,286046997.4,N
1583603175.6,286046998.0,N
1583603195.4,286046997.7,N
1583603215.3,286046997.6,N
1583603235.1,286046995.7,N
1583603255.8,286046996.2,N
1583603275.7,286046996.3,N
1583603295.5,286046994.6,N
1583603315.4,286046994.8,N
1583603335.2,286046993.5,N
1583603355.0,286046993.5,N
1583603355.9,286046993.5,N
1583603375.8,286046993.6,N
1583603395.6,286046993.6,N
1583603415.5,286046993.8,N
1583603435.3,286046994.1,N
1583603455.1,286046993.9,N
1583603475.9,286046991.8,Y
1583603495.7,286046995.4,P
1583603515.5,286046993.8,P
1583603535.4,286046994.7,P
1583603555.2,286046992.3,Y
1583603575.1,286046998.9,P
1583603576.0,286046998.9,N
1583603595.8,286047000.8,N
1583603615.6,286046999.9,N
1583603635.5,286047001.1,N
1583603655.3,286046999.2,N
1583603675.2,286046994.9,N
1583603695.9,286046997.5,N
1583603715.7,286046996.0,N
1583603735.6,286046993.5,Y
1583603755.4,286046996.2,P
1583603775.2,286046996.1,P
1583603795.1,286046997.6,N
1583603796.0,286046997.6,N
1583603815.8,286046996.9,Y
1583603835.7,286047001.0,P
1583603855.5,286046998.8,N
1583603875.3,286046996.8,N
1583603895.2,286046995.0,Y
1583603915.0,286046999.5,P
1583603915.9,286046999.5,N
1583603935.8,286046999.6,N
1583603955.6,286046999.5,N
1583603975.4,286046999.2,N
1583603995.3,286046997.5,Y
